{"data":{"norad_id":61963,"epoch":"2026-05-24T23:04:00.875136Z","epoch_age_seconds":78084,"freshness":"FRESH","line1":"1 61963U 24210E   26144.96112124  .00019561  00000+0  71810-3 0  9998","line2":"2 61963  43.0022 109.1669 0001737 273.9369  86.1284 15.27597487 86577","mean_motion":15.27597487,"eccentricity":0.0001737,"inclination_deg":43.0022,"raan_deg":109.1669,"arg_perigee_deg":273.9369,"mean_anomaly_deg":86.1284,"bstar":0.0007181,"rev_number":8657,"period_min":94.265669605674,"perigee_km":481.80495524062,"apogee_km":484.18851309987,"semimajor_km":6861.1337341702,"source":"CELESTRAK","updated_at":"2026-05-25T13:38:19.491714Z"}}